Time,TemperatureF,DewpointF,PressureIn,WindDirection,WindDirectionDegrees,WindSpeedMPH,WindSpeedGustMPH,Humidity,HourlyPrecipIn,Conditions,Clouds,dailyrainin,SolarRadiationWatts/m^2,SoftwareType,DateUTC
2013-06-13 00:01:00,57.7,53.2,30.06,ENE,75,0.0,0.0,85,0.00,FEW,,0.00,0.0,WeatherDisplay:10.37,2013-06-12 22:01:00,
2013-06-13 00:06:00,57.6,53.1,30.05,ENE,75,0.0,0.0,85,0.00,FEW,,0.00,0.0,WeatherDisplay:10.37,2013-06-12 22:06:00,
2013-06-13 00:11:00,57.4,52.9,30.06,ENE,75,0.0,0.0,85,0.00,FEW,,0.00,0.0,WeatherDisplay:10.37,2013-06-12 22:11:00,
2013-06-13 00:16:00,57.3,52.8,30.06,ENE,75,0.0,0.0,85,0.00,FEW,,0.00,0.0,WeatherDisplay:10.37,2013-06-12 22:16:00,
2013-06-13 00:21:00,57.1,53.0,30.06,ENE,75,0.0,0.0,86,0.00,FEW,,0.00,0.0,WeatherDisplay:10.37,2013-06-12 22:21:00,
2013-06-13 00:26:00,57.0,52.9,30.06,ENE,75,0.0,0.0,86,0.00,FEW,,0.00,0.0,WeatherDisplay:10.37,2013-06-12 22:26:00,
2013-06-13 00:31:00,56.9,52.8,30.06,ENE,75,0.0,0.0,86,0.00,FEW,,0.00,0.0,WeatherDisplay:10.37,2013-06-12 22:31:00,
2013-06-13 00:36:00,56.7,52.6,30.06,ENE,75,0.0,0.0,86,0.00,FEW,,0.00,0.0,WeatherDisplay:10.37,2013-06-12 22:36:00,
2013-06-13 00:41:00,56.6,52.5,30.06,ENE,75,0.0,0.0,86,0.00,FEW,,0.00,0.0,WeatherDisplay:10.37,2013-06-12 22:41:00,
2013-06-13 00:46:00,56.5,52.7,30.06,ENE,75,0.0,0.0,87,0.00,FEW,,0.00,0.0,WeatherDisplay:10.37,2013-06-12 22:46:00,
2013-06-13 00:51:00,56.4,52.6,30.05,ENE,75,0.0,0.0,87,0.00,FEW,,0.00,0.0,WeatherDisplay:10.37,2013-06-12 22:51:00,
2013-06-13 00:56:00,56.3,52.5,30.06,ENE,75,0.0,0.0,87,0.00,FEW,,0.00,0.0,WeatherDisplay:10.37,2013-06-12 22:56:00,
2013-06-13 01:01:00,56.2,52.4,30.05,ENE,75,0.0,0.0,87,0.00,FEW,,0.00,0.0,WeatherDisplay:10.37,2013-06-12 23:01:00,
2013-06-13 01:06:00,56.1,52.3,30.05,ENE,75,0.0,0.0,87,0.00,FEW,,0.00,0.0,WeatherDisplay:10.37,2013-06-12 23:06:00,
2013-06-13 01:11:00,56.0,52.2,30.05,ENE,75,0.0,0.0,87,0.00,FEW,,0.00,0.0,WeatherDisplay:10.37,2013-06-12 23:11:00,
2013-06-13 01:16:00,55.8,52.3,30.05,ENE,75,0.0,0.0,88,0.00,FEW,,0.00,0.0,WeatherDisplay:10.37,2013-06-12 23:16:00,
2013-06-13 01:21:00,55.7,52.2,30.06,ENE,75,0.0,0.0,88,0.00,FEW,,0.00,0.0,WeatherDisplay:10.37,2013-06-12 23:21:00,
2013-06-13 01:26:00,55.6,52.1,30.05,ENE,75,0.0,0.0,88,0.00,FEW,,0.00,0.0,WeatherDisplay:10.37,2013-06-12 23:26:00,
2013-06-13 01:31:00,55.4,51.9,30.05,ENE,75,0.0,0.0,88,0.00,FEW,,0.00,0.0,WeatherDisplay:10.37,2013-06-12 23:31:00,
2013-06-13 01:36:00,55.3,51.8,30.05,ENE,75,0.0,0.0,88,0.00,FEW,,0.00,0.0,WeatherDisplay:10.37,2013-06-12 23:36:00,
2013-06-13 01:41:00,55.2,51.7,30.05,ENE,75,0.0,0.0,88,0.00,FEW,,0.00,0.0,WeatherDisplay:10.37,2013-06-12 23:41:00,
2013-06-13 01:46:00,55.1,51.6,30.05,ENE,75,0.0,0.0,88,0.00,FEW,,0.00,0.0,WeatherDisplay:10.37,2013-06-12 23:46:00,
2013-06-13 01:51:00,54.9,51.7,30.05,ENE,75,0.0,0.0,89,0.00,FEW,,0.00,0.0,WeatherDisplay:10.37,2013-06-12 23:51:00,
2013-06-13 01:56:00,54.8,51.6,30.05,ENE,75,0.0,0.0,89,0.00,FEW,,0.00,0.0,WeatherDisplay:10.37,2013-06-12 23:56:00,
2013-06-13 02:01:00,54.7,51.5,30.05,ENE,75,0.0,0.0,89,0.00,FEW,,0.00,0.0,WeatherDisplay:10.37,2013-06-13 00:01:00,
2013-06-13 02:06:00,54.5,51.3,30.05,ENE,75,0.0,0.0,89,0.00,FEW,,0.00,0.0,WeatherDisplay:10.37,2013-06-13 00:06:00,
2013-06-13 02:11:00,54.4,51.2,30.05,ENE,75,0.0,0.0,89,0.00,FEW,,0.00,0.0,WeatherDisplay:10.37,2013-06-13 00:11:00,
2013-06-13 02:16:00,54.3,51.1,30.05,ENE,75,0.0,0.0,89,0.00,FEW,,0.00,0.0,WeatherDisplay:10.37,2013-06-13 00:16:00,
2013-06-13 02:21:00,54.2,51.3,30.05,ENE,75,0.0,0.0,90,0.00,FEW,,0.00,0.0,WeatherDisplay:10.37,2013-06-13 00:21:00,
2013-06-13 02:26:00,54.2,51.3,30.05,ENE,75,0.0,0.0,90,0.00,FEW,,0.00,0.0,WeatherDisplay:10.37,2013-06-13 00:26:00,
2013-06-13 02:31:00,54.0,51.1,30.05,ENE,75,0.0,0.0,90,0.00,FEW,,0.00,0.0,WeatherDisplay:10.37,2013-06-13 00:31:00,
2013-06-13 02:36:00,54.0,51.1,30.05,ENE,75,0.0,0.0,90,0.00,FEW,,0.00,0.0,WeatherDisplay:10.37,2013-06-13 00:36:00,
2013-06-13 02:41:00,53.8,50.9,30.05,ENE,75,0.0,0.0,90,0.00,FEW,,0.00,0.0,WeatherDisplay:10.37,2013-06-13 00:41:00,
2013-06-13 02:46:00,53.7,50.8,30.05,ENE,75,0.0,0.0,90,0.00,FEW,,0.00,0.0,WeatherDisplay:10.37,2013-06-13 00:46:00,
2013-06-13 02:51:00,53.6,50.7,30.05,ENE,75,0.0,0.0,90,0.00,FEW,,0.00,0.0,WeatherDisplay:10.37,2013-06-13 00:51:00,
2013-06-13 02:56:00,53.5,50.6,30.05,ENE,75,0.0,0.0,90,0.00,FEW,,0.00,0.0,WeatherDisplay:10.37,2013-06-13 00:56:00,
2013-06-13 03:01:00,53.4,50.8,30.05,ENE,75,0.0,0.0,91,0.00,FEW,,0.00,0.0,WeatherDisplay:10.37,2013-06-13 01:01:00,
2013-06-13 03:06:00,53.3,50.7,30.05,ENE,75,0.0,0.0,91,0.00,FEW,,0.00,0.0,WeatherDisplay:10.37,2013-06-13 01:06:00,
2013-06-13 03:11:00,53.2,50.6,30.05,ENE,75,0.0,0.0,91,0.00,FEW,,0.00,0.0,WeatherDisplay:10.37,2013-06-13 01:11:00,
2013-06-13 03:16:00,53.1,50.5,30.05,ENE,75,0.0,0.0,91,0.00,FEW,,0.00,0.0,WeatherDisplay:10.37,2013-06-13 01:16:00,
2013-06-13 03:21:00,53.0,50.4,30.05,ENE,75,0.0,0.0,91,0.00,FEW,,0.00,0.0,WeatherDisplay:10.37,2013-06-13 01:21:00,
2013-06-13 03:26:00,52.9,50.3,30.05,ENE,75,0.0,0.0,91,0.00,FEW,,0.00,0.0,WeatherDisplay:10.37,2013-06-13 01:26:00,
2013-06-13 03:31:00,52.9,50.3,30.05,ENE,75,0.0,0.0,91,0.00,FEW,,0.00,0.0,WeatherDisplay:10.37,2013-06-13 01:31:00,
2013-06-13 03:36:00,52.8,50.2,30.05,ENE,75,0.0,0.0,91,0.00,FEW,,0.00,0.0,WeatherDisplay:10.37,2013-06-13 01:36:00,
2013-06-13 03:41:00,52.7,50.1,30.05,ENE,75,0.0,0.0,91,0.00,FEW,,0.00,0.0,WeatherDisplay:10.37,2013-06-13 01:41:00,
2013-06-13 03:46:00,52.7,50.1,30.05,ENE,75,0.0,0.0,91,0.00,FEW,,0.00,0.0,WeatherDisplay:10.37,2013-06-13 01:46:00,
2013-06-13 03:51:00,52.6,50.0,30.05,ENE,75,0.0,0.0,91,0.00,FEW,,0.00,0.0,WeatherDisplay:10.37,2013-06-13 01:51:00,
2013-06-13 03:56:00,52.5,49.9,30.05,ENE,75,0.0,0.0,91,0.00,FEW,,0.00,0.0,WeatherDisplay:10.37,2013-06-13 01:56:00,
2013-06-13 04:01:00,52.4,50.1,30.05,ENE,75,0.0,0.0,92,0.00,FEW,,0.00,0.0,WeatherDisplay:10.37,2013-06-13 02:01:00,
2013-06-13 04:06:00,52.3,50.0,30.05,ENE,75,0.0,1.2,92,0.00,FEW,,0.00,0.0,WeatherDisplay:10.37,2013-06-13 02:06:00,
2013-06-13 04:11:00,52.2,49.9,30.05,ENE,75,0.0,0.0,92,0.00,FEW,,0.00,0.0,WeatherDisplay:10.37,2013-06-13 02:11:00,
2013-06-13 04:16:00,52.1,49.8,30.05,ENE,75,0.0,0.0,92,0.00,FEW,,0.00,0.0,WeatherDisplay:10.37,2013-06-13 02:16:00,
2013-06-13 04:21:00,52.1,49.8,30.05,ENE,75,0.0,0.0,92,0.00,FEW,,0.00,0.0,WeatherDisplay:10.37,2013-06-13 02:21:00,
2013-06-13 04:26:00,52.0,49.7,30.06,ENE,75,0.0,0.0,92,0.00,FEW,,0.00,0.0,WeatherDisplay:10.37,2013-06-13 02:26:00,
2013-06-13 04:31:00,51.9,49.6,30.06,ENE,75,0.0,0.0,92,0.00,FEW,,0.00,0.0,WeatherDisplay:10.37,2013-06-13 02:31:00,
2013-06-13 04:36:00,51.9,49.6,30.06,ENE,75,0.0,0.0,92,0.00,FEW,,0.00,0.0,WeatherDisplay:10.37,2013-06-13 02:36:00,
2013-06-13 04:41:00,51.9,49.6,30.06,ENE,75,0.0,0.0,92,0.00,FEW,,0.00,0.0,WeatherDisplay:10.37,2013-06-13 02:41:00,
2013-06-13 04:46:00,51.8,49.5,30.06,ENE,75,0.0,0.0,92,0.00,FEW,,0.00,0.0,WeatherDisplay:10.37,2013-06-13 02:46:00,
2013-06-13 04:51:00,51.8,49.5,30.07,ENE,75,0.0,0.0,92,0.00,FEW,,0.00,5.0,WeatherDisplay:10.37,2013-06-13 02:51:00,
2013-06-13 04:56:00,51.7,49.5,30.06,ENE,75,0.0,0.0,92,0.00,FEW,,0.00,7.0,WeatherDisplay:10.37,2013-06-13 02:56:00,
2013-06-13 05:01:00,51.7,49.5,30.06,ENE,75,0.0,0.0,92,0.00,FEW,,0.00,9.0,WeatherDisplay:10.37,2013-06-13 03:01:00,
2013-06-13 05:06:00,51.7,49.5,30.06,ENE,75,0.0,0.0,92,0.00,FEW,,0.00,11.0,WeatherDisplay:10.37,2013-06-13 03:06:00,
2013-06-13 05:11:00,51.6,49.4,30.06,ENE,75,0.0,0.0,92,0.00,FEW,,0.00,12.0,WeatherDisplay:10.37,2013-06-13 03:11:00,
2013-06-13 05:16:00,51.6,49.6,30.06,ENE,75,0.0,1.2,93,0.00,FEW,,0.00,12.0,WeatherDisplay:10.37,2013-06-13 03:16:00,
2013-06-13 05:21:00,51.6,49.6,30.06,ENE,75,0.0,0.0,93,0.00,FEW,,0.00,14.0,WeatherDisplay:10.37,2013-06-13 03:21:00,
2013-06-13 05:26:00,51.7,49.7,30.07,ENE,75,0.0,0.0,93,0.00,FEW,,0.00,32.0,WeatherDisplay:10.37,2013-06-13 03:26:00,
2013-06-13 05:31:00,51.8,49.8,30.07,ENE,75,0.0,0.0,93,0.00,FEW,,0.00,42.0,WeatherDisplay:10.37,2013-06-13 03:31:00,
2013-06-13 05:36:00,51.8,49.8,30.07,ENE,75,0.0,0.0,93,0.00,FEW,,0.00,51.0,WeatherDisplay:10.37,2013-06-13 03:36:00,
2013-06-13 05:41:00,51.9,49.9,30.07,ENE,75,0.0,0.0,93,0.00,FEW,,0.00,60.0,WeatherDisplay:10.37,2013-06-13 03:41:00,
2013-06-13 05:46:00,52.0,50.0,30.06,ENE,75,0.0,0.0,93,0.00,SCT,,0.00,69.0,WeatherDisplay:10.37,2013-06-13 03:46:00,
2013-06-13 05:51:00,52.4,50.7,30.07,ENE,75,0.0,0.0,94,0.00,SCT,,0.00,77.0,WeatherDisplay:10.37,2013-06-13 03:51:00,
2013-06-13 05:56:00,52.8,51.1,30.07,ENE,75,0.0,0.0,94,0.00,SCT,,0.00,86.0,WeatherDisplay:10.37,2013-06-13 03:56:00,
2013-06-13 06:01:00,53.2,51.5,30.07,ENE,75,0.0,0.0,94,0.00,FEW,,0.00,97.0,WeatherDisplay:10.37,2013-06-13 04:01:00,
2013-06-13 06:02:00,53.3,51.6,30.07,ENE,75,0.0,0.0,94,0.00,FEW,,0.00,100.0,WeatherDisplay:10.37,2013-06-13 04:02:00,
2013-06-13 06:03:00,53.3,51.6,30.07,ENE,75,0.0,0.0,94,0.00,FEW,,0.00,102.0,WeatherDisplay:10.37,2013-06-13 04:03:00,
2013-06-13 06:07:00,53.6,52.2,30.07,ENE,75,0.0,0.0,95,0.00,FEW,,0.00,111.0,WeatherDisplay:10.37,2013-06-13 04:07:00,
2013-06-13 06:08:00,53.7,52.3,30.07,ENE,75,0.0,0.0,95,0.00,FEW,,0.00,113.0,WeatherDisplay:10.37,2013-06-13 04:08:00,
2013-06-13 06:13:00,54.3,52.9,30.07,ENE,75,0.0,0.0,95,0.00,FEW,,0.00,125.0,WeatherDisplay:10.37,2013-06-13 04:13:00,
2013-06-13 06:18:00,54.8,53.4,30.07,ENE,75,0.0,0.0,95,0.00,FEW,,0.00,137.0,WeatherDisplay:10.37,2013-06-13 04:18:00,
2013-06-13 06:23:00,55.2,53.8,30.07,ENE,75,0.0,0.0,95,0.00,CLR,,0.00,148.0,WeatherDisplay:10.37,2013-06-13 04:23:00,
2013-06-13 06:28:00,56.1,53.5,30.07,ENE,75,0.0,0.0,91,0.00,CLR,,0.00,158.0,WeatherDisplay:10.37,2013-06-13 04:28:00,
2013-06-13 06:33:00,57.2,53.7,30.07,ENE,75,0.0,0.0,88,0.00,CLR,,0.00,169.0,WeatherDisplay:10.37,2013-06-13 04:33:00,
2013-06-13 06:38:00,58.1,53.6,30.08,ENE,75,0.0,0.0,85,0.00,CLR,,0.00,179.0,WeatherDisplay:10.37,2013-06-13 04:38:00,
2013-06-13 06:43:00,58.8,53.6,30.08,NW,307,0.0,0.0,83,0.00,CLR,,0.00,190.0,WeatherDisplay:10.37,2013-06-13 04:43:00,
2013-06-13 06:48:00,59.5,53.7,30.07,NW,307,0.0,0.0,81,0.00,CLR,,0.00,199.0,WeatherDisplay:10.37,2013-06-13 04:48:00,
2013-06-13 06:53:00,59.9,53.4,30.08,NW,307,0.0,0.0,79,0.00,CLR,,0.00,211.0,WeatherDisplay:10.37,2013-06-13 04:53:00,
2013-06-13 06:58:00,60.4,54.2,30.08,NW,307,0.0,0.0,80,0.00,CLR,,0.00,223.0,WeatherDisplay:10.37,2013-06-13 04:58:00,
2013-06-13 07:03:00,60.8,53.5,30.08,NW,307,0.0,0.0,77,0.00,CLR,,0.00,236.0,WeatherDisplay:10.37,2013-06-13 05:03:00,
2013-06-13 07:08:00,61.2,53.9,30.07,NW,307,0.0,0.0,77,0.00,CLR,,0.00,248.0,WeatherDisplay:10.37,2013-06-13 05:08:00,
2013-06-13 07:13:00,61.5,54.2,30.07,NW,307,0.0,0.0,77,0.00,CLR,,0.00,260.0,WeatherDisplay:10.37,2013-06-13 05:13:00,
2013-06-13 07:18:00,61.7,54.1,30.07,NW,307,0.0,0.0,76,0.00,CLR,,0.00,272.0,WeatherDisplay:10.37,2013-06-13 05:18:00,
2013-06-13 07:23:00,62.1,54.8,30.07,NW,306,0.0,0.0,77,0.00,CLR,,0.00,283.0,WeatherDisplay:10.37,2013-06-13 05:23:00,
2013-06-13 07:28:00,62.5,54.5,30.07,NW,306,0.0,0.0,75,0.00,CLR,,0.00,295.0,WeatherDisplay:10.37,2013-06-13 05:28:00,
2013-06-13 07:33:00,63.0,54.6,30.07,NW,306,0.0,0.0,74,0.00,CLR,,0.00,309.0,WeatherDisplay:10.37,2013-06-13 05:33:00,
2013-06-13 07:38:00,63.6,54.8,30.07,North,5,0.5,3.5,73,0.00,CLR,,0.00,323.0,WeatherDisplay:10.37,2013-06-13 05:38:00,
2013-06-13 07:43:00,64.5,53.7,30.07,NE,51,3.6,7.0,68,0.00,CLR,,0.00,336.0,WeatherDisplay:10.37,2013-06-13 05:43:00,
2013-06-13 07:48:00,65.4,53.7,30.07,North,360,1.5,6.9,66,0.00,CLR,,0.00,348.0,WeatherDisplay:10.37,2013-06-13 05:48:00,
2013-06-13 07:53:00,66.0,54.7,30.07,NNE,19,2.9,5.0,67,0.00,CLR,,0.00,359.0,WeatherDisplay:10.37,2013-06-13 05:53:00,
2013-06-13 07:58:00,66.6,54.5,30.07,North,355,3.8,7.0,65,0.00,CLR,,0.00,371.0,WeatherDisplay:10.37,2013-06-13 05:58:00,
2013-06-13 08:03:00,67.0,55.3,30.07,NNE,28,0.2,3.5,66,0.00,CLR,,0.00,383.0,WeatherDisplay:10.37,2013-06-13 06:03:00,
2013-06-13 08:08:00,67.3,54.7,30.07,NE,51,2.1,5.8,64,0.00,CLR,,0.00,397.0,WeatherDisplay:10.37,2013-06-13 06:08:00,
2013-06-13 08:13:00,67.6,53.7,30.07,NE,49,2.5,8.1,61,0.00,CLR,,0.00,410.0,WeatherDisplay:10.37,2013-06-13 06:13:00,
2013-06-13 08:18:00,67.9,54.0,30.07,NNE,26,3.9,6.9,61,0.00,CLR,,0.00,422.0,WeatherDisplay:10.37,2013-06-13 06:18:00,
2013-06-13 08:23:00,68.4,54.0,30.07,NNE,27,4.8,7.0,60,0.00,CLR,,0.00,434.0,WeatherDisplay:10.37,2013-06-13 06:23:00,
2013-06-13 08:28:00,68.7,53.8,30.07,North,355,4.0,8.1,59,0.00,CLR,,0.00,445.0,WeatherDisplay:10.37,2013-06-13 06:28:00,
2013-06-13 08:33:00,68.9,54.4,30.07,NNE,15,2.6,9.2,60,0.00,CLR,,0.00,457.0,WeatherDisplay:10.37,2013-06-13 06:33:00,
2013-06-13 08:38:00,69.2,54.3,30.07,SE,134,2.5,5.8,59,0.00,CLR,,0.00,469.0,WeatherDisplay:10.37,2013-06-13 06:38:00,
2013-06-13 08:43:00,69.2,53.8,30.07,ENE,69,2.1,10.4,58,0.00,CLR,,0.00,482.0,WeatherDisplay:10.37,2013-06-13 06:43:00,
2013-06-13 08:48:00,69.5,55.0,30.07,NNW,341,3.3,6.0,60,0.00,CLR,,0.00,492.0,WeatherDisplay:10.37,2013-06-13 06:48:00,
2013-06-13 08:53:00,69.8,53.9,30.07,NNE,21,3.7,11.5,57,0.00,CLR,,0.00,504.0,WeatherDisplay:10.37,2013-06-13 06:53:00,
2013-06-13 08:58:00,69.9,54.9,30.07,ENE,67,0.9,4.6,59,0.00,CLR,,0.00,515.0,WeatherDisplay:10.37,2013-06-13 06:58:00,
2013-06-13 09:03:00,70.1,54.6,30.07,ENE,57,3.1,7.0,58,0.00,CLR,,0.00,526.0,WeatherDisplay:10.37,2013-06-13 07:03:00,
2013-06-13 09:08:00,70.2,55.2,30.07,NNE,27,1.4,4.6,59,0.00,CLR,,0.00,538.0,WeatherDisplay:10.37,2013-06-13 07:08:00,
2013-06-13 09:13:00,70.4,54.9,30.07,NNE,17,4.6,8.1,58,0.00,CLR,,0.00,548.0,WeatherDisplay:10.37,2013-06-13 07:13:00,
2013-06-13 09:18:00,70.5,54.5,30.07,North,9,4.4,8.1,57,0.00,CLR,,0.00,559.0,WeatherDisplay:10.37,2013-06-13 07:18:00,
2013-06-13 09:23:00,70.6,55.1,30.07,NE,36,3.1,6.9,58,0.00,CLR,,0.00,570.0,WeatherDisplay:10.37,2013-06-13 07:23:00,
2013-06-13 09:28:00,70.9,55.4,30.07,North,355,4.1,7.0,58,0.00,CLR,,0.00,580.0,WeatherDisplay:10.37,2013-06-13 07:28:00,
2013-06-13 09:33:00,71.2,55.2,30.07,North,11,2.4,6.0,57,0.00,CLR,,0.00,589.0,WeatherDisplay:10.37,2013-06-13 07:33:00,
2013-06-13 09:38:00,71.2,55.2,30.07,North,9,2.9,6.9,57,0.00,CLR,,0.00,598.0,WeatherDisplay:10.37,2013-06-13 07:38:00,
2013-06-13 09:43:00,71.2,55.7,30.07,NE,48,3.6,9.2,58,0.00,CLR,,0.00,608.0,WeatherDisplay:10.37,2013-06-13 07:43:00,
2013-06-13 09:48:00,71.5,55.5,30.07,NNW,344,1.6,4.6,57,0.00,CLR,,0.00,619.0,WeatherDisplay:10.37,2013-06-13 07:48:00,
2013-06-13 09:55:00,71.9,55.8,30.07,ENE,57,2.0,4.0,57,0.00,CLR,,0.00,633.0,WeatherDisplay:10.37,2013-06-13 07:55:00,
2013-06-13 10:00:00,72.1,55.5,30.07,North,5,3.9,8.1,56,0.00,CLR,,0.00,642.0,WeatherDisplay:10.37,2013-06-13 08:00:00,
2013-06-13 10:05:00,72.0,55.4,30.07,NNE,17,2.1,7.0,56,0.00,CLR,,0.00,654.0,WeatherDisplay:10.37,2013-06-13 08:05:00,
2013-06-13 10:10:00,72.3,56.2,30.07,North,5,3.9,7.0,57,0.00,CLR,,0.00,663.0,WeatherDisplay:10.37,2013-06-13 08:10:00,
2013-06-13 10:15:00,72.5,55.4,30.07,North,355,4.9,11.0,55,0.00,CLR,,0.00,670.0,WeatherDisplay:10.37,2013-06-13 08:15:00,
2013-06-13 10:20:00,72.8,56.7,30.07,NE,53,2.2,4.6,57,0.00,CLR,,0.00,677.0,WeatherDisplay:10.37,2013-06-13 08:20:00,
2013-06-13 10:25:00,73.1,56.5,30.07,NNW,336,2.5,6.9,56,0.00,CLR,,0.00,687.0,WeatherDisplay:10.37,2013-06-13 08:25:00,
2013-06-13 10:30:00,73.1,54.9,30.07,North,5,3.4,5.0,53,0.00,CLR,,0.00,696.0,WeatherDisplay:10.37,2013-06-13 08:30:00,
2013-06-13 10:35:00,73.1,54.9,30.07,North,350,4.3,6.0,53,0.00,CLR,,0.00,703.0,WeatherDisplay:10.37,2013-06-13 08:35:00,
2013-06-13 10:40:00,73.3,55.1,30.07,NNE,16,1.4,6.9,53,0.00,CLR,,0.00,708.0,WeatherDisplay:10.37,2013-06-13 08:40:00,
2013-06-13 10:45:00,73.5,57.3,30.06,NW,324,3.0,7.0,57,0.00,CLR,,0.00,719.0,WeatherDisplay:10.37,2013-06-13 08:45:00,
2013-06-13 10:50:00,73.9,56.2,30.06,North,355,2.3,5.0,54,0.00,CLR,,0.00,726.0,WeatherDisplay:10.37,2013-06-13 08:50:00,
2013-06-13 10:55:00,73.9,55.2,30.07,North,355,3.6,5.8,52,0.00,CLR,,0.00,735.0,WeatherDisplay:10.37,2013-06-13 08:55:00,
2013-06-13 11:00:00,73.8,55.6,30.07,NNW,333,4.0,7.0,53,0.00,CLR,,0.00,747.0,WeatherDisplay:10.37,2013-06-13 09:00:00,
2013-06-13 11:05:00,73.8,55.6,30.06,NNW,328,4.1,6.9,53,0.00,CLR,,0.00,747.0,WeatherDisplay:10.37,2013-06-13 09:05:00,
2013-06-13 11:10:00,74.0,56.8,30.06,NE,47,0.0,5.8,55,0.00,CLR,,0.00,754.0,WeatherDisplay:10.37,2013-06-13 09:10:00,
2013-06-13 11:15:00,74.1,55.9,30.06,NNE,17,5.1,8.1,53,0.00,CLR,,0.00,763.0,WeatherDisplay:10.37,2013-06-13 09:15:00,
2013-06-13 11:20:00,74.1,55.9,30.06,NW,307,2.9,8.1,53,0.00,CLR,,0.00,772.0,WeatherDisplay:10.37,2013-06-13 09:20:00,
2013-06-13 11:25:00,74.4,57.7,30.06,NNE,29,1.0,4.6,56,0.00,CLR,,0.00,780.0,WeatherDisplay:10.37,2013-06-13 09:25:00,
2013-06-13 11:30:00,74.8,56.0,30.06,NW,323,2.4,5.0,52,0.00,CLR,,0.00,768.0,WeatherDisplay:10.37,2013-06-13 09:30:00,
2013-06-13 11:35:00,74.8,57.0,30.06,North,5,3.0,5.0,54,0.00,CLR,,0.00,772.0,WeatherDisplay:10.37,2013-06-13 09:35:00,
2013-06-13 11:40:00,75.0,56.2,30.06,NE,55,3.0,6.0,52,0.00,CLR,,0.00,642.0,WeatherDisplay:10.37,2013-06-13 09:40:00,
2013-06-13 11:45:00,75.0,56.2,30.06,North,360,5.4,10.4,52,0.00,FEW,,0.00,796.0,WeatherDisplay:10.37,2013-06-13 09:45:00,
2013-06-13 11:50:00,75.5,55.6,30.06,NE,50,4.6,9.2,50,0.00,CLR,,0.00,726.0,WeatherDisplay:10.37,2013-06-13 09:50:00,
2013-06-13 11:55:00,75.3,55.9,30.06,ENE,67,3.4,8.1,51,0.00,CLR,,0.00,786.0,WeatherDisplay:10.37,2013-06-13 09:55:00,
2013-06-13 12:00:00,75.4,55.5,30.05,NW,313,3.4,6.9,50,0.00,CLR,,0.00,814.0,WeatherDisplay:10.37,2013-06-13 10:00:00,
2013-06-13 12:05:00,75.7,55.2,30.05,WNW,286,4.2,11.0,49,0.00,CLR,,0.00,810.0,WeatherDisplay:10.37,2013-06-13 10:05:00,
2013-06-13 12:10:00,76.2,55.6,30.05,NNW,328,3.9,6.9,49,0.00,CLR,,0.00,765.0,WeatherDisplay:10.37,2013-06-13 10:10:00,
2013-06-13 12:15:00,76.3,54.0,30.05,NNE,17,4.5,10.4,46,0.00,CLR,,0.00,833.0,WeatherDisplay:10.37,2013-06-13 10:15:00,
2013-06-13 12:20:00,76.4,55.3,30.05,NW,312,2.7,6.0,48,0.00,CLR,,0.00,791.0,WeatherDisplay:10.37,2013-06-13 10:20:00,
2013-06-13 12:25:00,76.4,52.9,30.05,NNE,22,5.1,11.5,44,0.00,CLR,,0.00,726.0,WeatherDisplay:10.37,2013-06-13 10:25:00,
2013-06-13 12:30:00,76.5,53.0,30.05,NNW,347,7.8,11.5,44,0.00,CLR,,0.00,789.0,WeatherDisplay:10.37,2013-06-13 10:30:00,
2013-06-13 12:35:00,76.6,52.4,30.05,NNE,32,4.0,7.0,43,0.00,FEW,,0.00,703.0,WeatherDisplay:10.37,2013-06-13 10:35:00,
2013-06-13 12:40:00,76.8,54.5,30.05,NW,315,4.3,8.1,46,0.00,CLR,,0.00,842.0,WeatherDisplay:10.37,2013-06-13 10:40:00,
2013-06-13 12:45:00,77.1,52.9,30.05,NW,313,3.2,9.2,43,0.00,CLR,,0.00,793.0,WeatherDisplay:10.37,2013-06-13 10:45:00,
2013-06-13 12:50:00,77.3,53.7,30.05,North,355,4.4,8.1,44,0.00,CLR,,0.00,821.0,WeatherDisplay:10.37,2013-06-13 10:50:00,
2013-06-13 12:55:00,77.4,51.9,30.05,NNW,331,3.6,10.4,41,0.00,CLR,,0.00,821.0,WeatherDisplay:10.37,2013-06-13 10:55:00,
2013-06-13 13:00:00,77.1,52.2,30.05,NW,311,2.2,6.9,42,0.00,CLR,,0.00,819.0,WeatherDisplay:10.37,2013-06-13 11:00:00,
2013-06-13 13:05:00,77.3,53.7,30.05,NNW,345,1.2,8.1,44,0.00,CLR,,0.00,817.0,WeatherDisplay:10.37,2013-06-13 11:05:00,
2013-06-13 13:10:00,77.5,51.3,30.05,North,5,0.8,5.8,40,0.00,CLR,,0.00,817.0,WeatherDisplay:10.37,2013-06-13 11:10:00,
2013-06-13 13:15:00,77.3,51.1,30.05,NNW,333,3.3,5.8,40,0.00,CLR,,0.00,812.0,WeatherDisplay:10.37,2013-06-13 11:15:00,
2013-06-13 13:20:00,77.4,53.1,30.04,North,355,4.4,7.0,43,0.00,CLR,,0.00,810.0,WeatherDisplay:10.37,2013-06-13 11:20:00,
2013-06-13 13:25:00,77.5,53.2,30.04,WSW,251,4.9,7.0,43,0.00,CLR,,0.00,810.0,WeatherDisplay:10.37,2013-06-13 11:25:00,
2013-06-13 13:30:00,77.6,53.3,30.04,NNW,329,3.5,10.4,43,0.00,CLR,,0.00,824.0,WeatherDisplay:10.37,2013-06-13 11:30:00,
2013-06-13 13:35:00,77.5,52.6,30.04,NW,325,2.4,6.9,42,0.00,CLR,,0.00,819.0,WeatherDisplay:10.37,2013-06-13 11:35:00,
2013-06-13 13:40:00,77.6,54.6,30.04,NE,40,5.1,10.0,45,0.00,CLR,,0.00,830.0,WeatherDisplay:10.37,2013-06-13 11:40:00,
2013-06-13 13:45:00,77.8,54.8,30.04,NNE,26,2.2,6.9,45,0.00,CLR,,0.00,821.0,WeatherDisplay:10.37,2013-06-13 11:45:00,
2013-06-13 13:50:00,77.7,52.8,30.04,NW,315,3.6,6.9,42,0.00,CLR,,0.00,816.0,WeatherDisplay:10.37,2013-06-13 11:50:00,
2013-06-13 13:55:00,77.5,54.5,30.04,North,360,4.8,8.0,45,0.00,CLR,,0.00,810.0,WeatherDisplay:10.37,2013-06-13 11:55:00,
2013-06-13 14:00:00,77.8,54.8,30.04,ENE,67,4.5,9.0,45,0.00,CLR,,0.00,872.0,WeatherDisplay:10.37,2013-06-13 12:00:00,
2013-06-13 14:05:00,77.7,54.0,30.04,NE,42,2.3,4.0,44,0.00,FEW,,0.00,868.0,WeatherDisplay:10.37,2013-06-13 12:05:00,
2013-06-13 14:10:00,77.9,54.2,30.04,ENE,77,4.2,9.2,44,0.00,SCT,,0.00,141.0,WeatherDisplay:10.37,2013-06-13 12:10:00,
2013-06-13 14:15:00,77.6,54.6,30.03,NNE,18,2.9,5.8,45,0.00,SCT,,0.00,803.0,WeatherDisplay:10.37,2013-06-13 12:15:00,
2013-06-13 14:20:00,77.8,54.1,30.03,ENE,60,4.6,10.0,44,0.00,SCT,,0.00,838.0,WeatherDisplay:10.37,2013-06-13 12:20:00,
2013-06-13 14:25:00,78.0,54.3,30.03,NE,55,2.6,9.2,44,0.00,CLR,,0.00,784.0,WeatherDisplay:10.37,2013-06-13 12:25:00,
2013-06-13 14:30:00,78.1,54.4,30.03,NE,34,4.2,6.9,44,0.00,CLR,,0.00,766.0,WeatherDisplay:10.37,2013-06-13 12:30:00,
2013-06-13 14:35:00,78.1,54.4,30.03,WNW,295,2.9,5.8,44,0.00,CLR,,0.00,759.0,WeatherDisplay:10.37,2013-06-13 12:35:00,
2013-06-13 14:40:00,78.3,55.2,30.03,North,10,3.4,9.2,45,0.00,CLR,,0.00,735.0,WeatherDisplay:10.37,2013-06-13 12:40:00,
2013-06-13 14:45:00,78.3,55.8,30.03,NNW,335,1.3,8.1,46,0.00,CLR,,0.00,749.0,WeatherDisplay:10.37,2013-06-13 12:45:00,
2013-06-13 14:50:00,78.3,54.0,30.03,North,5,1.6,3.5,43,0.00,CLR,,0.00,740.0,WeatherDisplay:10.37,2013-06-13 12:50:00,
2013-06-13 14:55:00,78.2,54.5,30.03,North,355,1.6,5.0,44,0.00,CLR,,0.00,747.0,WeatherDisplay:10.37,2013-06-13 12:55:00,
2013-06-13 15:00:00,78.1,55.0,30.03,North,360,3.5,5.8,45,0.00,CLR,,0.00,733.0,WeatherDisplay:10.37,2013-06-13 13:00:00,
2013-06-13 15:05:00,78.4,55.9,30.03,ENE,67,3.6,9.0,46,0.00,CLR,,0.00,726.0,WeatherDisplay:10.37,2013-06-13 13:05:00,
2013-06-13 15:10:00,78.4,55.9,30.03,ENE,67,0.2,3.5,46,0.00,CLR,,0.00,715.0,WeatherDisplay:10.37,2013-06-13 13:10:00,
2013-06-13 15:15:00,78.4,55.9,30.03,East,82,0.0,2.3,46,0.00,CLR,,0.00,715.0,WeatherDisplay:10.37,2013-06-13 13:15:00,
2013-06-13 15:20:00,78.4,55.9,30.02,East,79,1.2,3.5,46,0.00,CLR,,0.00,733.0,WeatherDisplay:10.37,2013-06-13 13:20:00,
2013-06-13 15:25:00,78.6,56.7,30.02,North,5,5.1,10.4,47,0.00,CLR,,0.00,754.0,WeatherDisplay:10.37,2013-06-13 13:25:00,
2013-06-13 15:30:00,78.8,55.7,30.02,NE,52,3.9,6.0,45,0.00,CLR,,0.00,728.0,WeatherDisplay:10.37,2013-06-13 13:30:00,
2013-06-13 15:35:00,78.6,56.7,30.02,East,101,3.3,5.8,47,0.00,CLR,,0.00,707.0,WeatherDisplay:10.37,2013-06-13 13:35:00,
2013-06-13 15:40:00,78.4,56.5,30.02,NE,52,1.3,3.5,47,0.00,CLR,,0.00,316.0,WeatherDisplay:10.37,2013-06-13 13:40:00,
2013-06-13 15:45:00,78.3,56.4,30.02,North,355,2.2,8.0,47,0.00,CLR,,0.00,761.0,WeatherDisplay:10.37,2013-06-13 13:45:00,
2013-06-13 15:50:00,78.4,55.9,30.02,North,5,3.3,5.8,46,0.00,SCT,,0.00,137.0,WeatherDisplay:10.37,2013-06-13 13:50:00,
2013-06-13 15:55:00,78.1,55.6,30.02,NE,52,1.5,6.9,46,0.00,BKN,,0.00,682.0,WeatherDisplay:10.37,2013-06-13 13:55:00,
2013-06-13 16:00:00,78.0,54.9,30.01,ENE,57,1.3,4.0,45,0.00,SCT,,0.00,679.0,WeatherDisplay:10.37,2013-06-13 14:00:00,
2013-06-13 16:05:00,78.2,56.3,30.01,North,350,0.9,3.5,47,0.00,CLR,,0.00,703.0,WeatherDisplay:10.37,2013-06-13 14:05:00,
2013-06-13 16:10:00,78.7,55.6,30.01,NE,51,3.5,9.2,45,0.00,CLR,,0.00,169.0,WeatherDisplay:10.37,2013-06-13 14:10:00,
2013-06-13 16:15:00,78.5,55.4,30.01,ENE,65,0.9,3.5,45,0.00,SCT,,0.00,141.0,WeatherDisplay:10.37,2013-06-13 14:15:00,
2013-06-13 16:20:00,78.0,55.5,30.01,NE,55,1.3,5.8,46,0.00,BKN,,0.00,127.0,WeatherDisplay:10.37,2013-06-13 14:20:00,
2013-06-13 16:25:00,77.5,55.1,30.01,North,5,0.7,3.5,46,0.00,BKN,,0.00,93.0,WeatherDisplay:10.37,2013-06-13 14:25:00,
2013-06-13 16:30:00,77.1,55.9,30.00,NE,50,0.6,2.3,48,0.00,BKN,,0.00,107.0,WeatherDisplay:10.37,2013-06-13 14:30:00,
2013-06-13 16:35:00,76.8,55.0,30.00,NE,50,0.0,0.0,47,0.00,BKN,,0.00,587.0,WeatherDisplay:10.37,2013-06-13 14:35:00,
2013-06-13 16:40:00,77.5,55.7,30.00,NE,43,2.3,6.9,47,0.00,FEW,,0.00,589.0,WeatherDisplay:10.37,2013-06-13 14:40:00,
2013-06-13 16:45:00,78.0,56.1,30.00,North,5,2.1,4.0,47,0.00,CLR,,0.00,163.0,WeatherDisplay:10.37,2013-06-13 14:45:00,
2013-06-13 16:50:00,78.0,56.1,30.00,NE,34,1.7,4.0,47,0.00,SCT,,0.00,84.0,WeatherDisplay:10.37,2013-06-13 14:50:00,
2013-06-13 16:55:00,77.6,56.4,30.00,NE,44,0.7,3.5,48,0.00,BKN,,0.00,84.0,WeatherDisplay:10.37,2013-06-13 14:55:00,
2013-06-13 17:00:00,77.2,56.0,30.00,ENE,66,0.0,3.5,48,0.00,BKN,,0.00,72.0,WeatherDisplay:10.37,2013-06-13 15:00:00,
2013-06-13 17:05:00,76.8,56.2,30.00,ENE,66,0.0,1.2,49,0.00,BKN,,0.00,105.0,WeatherDisplay:10.37,2013-06-13 15:05:00,
2013-06-13 17:10:00,76.5,57.0,30.00,ENE,66,0.1,1.2,51,0.00,BKN,,0.00,146.0,WeatherDisplay:10.37,2013-06-13 15:10:00,
2013-06-13 17:15:00,76.9,56.8,30.00,ENE,66,0.6,2.3,50,0.00,SCT,,0.00,452.0,WeatherDisplay:10.37,2013-06-13 15:15:00,
2013-06-13 17:20:00,77.6,55.2,29.99,North,355,2.7,5.8,46,0.00,CLR,,0.00,443.0,WeatherDisplay:10.37,2013-06-13 15:20:00,
2013-06-13 17:25:00,77.9,56.0,29.99,NW,313,1.3,3.5,47,0.00,CLR,,0.00,436.0,WeatherDisplay:10.37,2013-06-13 15:25:00,
2013-06-13 17:30:00,78.3,56.4,29.99,NW,320,1.4,3.5,47,0.00,CLR,,0.00,417.0,WeatherDisplay:10.37,2013-06-13 15:30:00,
2013-06-13 17:35:00,78.6,56.1,29.99,NNE,29,5.0,9.2,46,0.00,CLR,,0.00,406.0,WeatherDisplay:10.37,2013-06-13 15:35:00,
2013-06-13 17:40:00,78.7,55.6,29.99,North,5,2.6,5.8,45,0.00,CLR,,0.00,336.0,WeatherDisplay:10.37,2013-06-13 15:40:00,
2013-06-13 17:45:00,78.8,55.7,29.99,NNE,24,2.6,6.0,45,0.00,CLR,,0.00,352.0,WeatherDisplay:10.37,2013-06-13 15:45:00,
2013-06-13 17:50:00,78.8,55.7,29.99,ENE,73,1.9,3.5,45,0.00,CLR,,0.00,334.0,WeatherDisplay:10.37,2013-06-13 15:50:00,
2013-06-13 17:55:00,78.7,55.6,29.99,North,5,1.4,6.0,45,0.00,CLR,,0.00,357.0,WeatherDisplay:10.37,2013-06-13 15:55:00,
2013-06-13 18:00:00,78.8,55.7,29.99,North,9,4.2,6.9,45,0.00,CLR,,0.00,352.0,WeatherDisplay:10.37,2013-06-13 16:00:00,
2013-06-13 18:05:00,78.9,55.8,29.99,NNE,17,1.4,3.5,45,0.00,CLR,,0.00,339.0,WeatherDisplay:10.37,2013-06-13 16:05:00,
2013-06-13 18:10:00,78.9,55.8,29.99,North,5,1.8,5.0,45,0.00,CLR,,0.00,325.0,WeatherDisplay:10.37,2013-06-13 16:10:00,
2013-06-13 18:15:00,78.9,56.4,29.99,East,82,2.4,5.0,46,0.00,CLR,,0.00,304.0,WeatherDisplay:10.37,2013-06-13 16:15:00,
2013-06-13 18:20:00,78.7,55.6,29.99,ENE,72,1.3,5.8,45,0.00,CLR,,0.00,260.0,WeatherDisplay:10.37,2013-06-13 16:20:00,
2013-06-13 18:25:00,78.5,54.8,29.99,North,5,0.3,2.3,44,0.00,CLR,,0.00,244.0,WeatherDisplay:10.37,2013-06-13 16:25:00,
2013-06-13 18:30:00,78.1,55.6,29.99,North,9,0.5,2.3,46,0.00,CLR,,0.00,260.0,WeatherDisplay:10.37,2013-06-13 16:30:00,
2013-06-13 18:35:00,77.9,56.0,29.99,North,9,0.4,1.2,47,0.00,CLR,,0.00,234.0,WeatherDisplay:10.37,2013-06-13 16:35:00,
2013-06-13 18:40:00,77.8,54.8,29.98,North,355,1.0,3.5,45,0.00,CLR,,0.00,244.0,WeatherDisplay:10.37,2013-06-13 16:40:00,
2013-06-13 18:45:00,77.7,55.3,29.98,North,5,0.0,2.3,46,0.00,CLR,,0.00,225.0,WeatherDisplay:10.37,2013-06-13 16:45:00,
2013-06-13 18:50:00,77.6,55.8,29.98,NE,40,1.7,4.0,47,0.00,CLR,,0.00,207.0,WeatherDisplay:10.37,2013-06-13 16:50:00,
2013-06-13 18:55:00,77.4,55.0,29.98,North,5,1.8,3.5,46,0.00,CLR,,0.00,188.0,WeatherDisplay:10.37,2013-06-13 16:55:00,
2013-06-13 19:00:00,77.4,55.6,29.98,North,5,1.1,2.3,47,0.00,CLR,,0.00,183.0,WeatherDisplay:10.37,2013-06-13 17:00:00,
2013-06-13 19:05:00,77.3,55.5,29.98,North,5,1.1,3.5,47,0.00,CLR,,0.00,172.0,WeatherDisplay:10.37,2013-06-13 17:05:00,
2013-06-13 19:10:00,77.2,54.8,29.98,NNE,31,0.1,2.3,46,0.00,CLR,,0.00,156.0,WeatherDisplay:10.37,2013-06-13 17:10:00,
2013-06-13 19:15:00,77.1,55.9,29.98,ENE,60,0.1,3.5,48,0.00,CLR,,0.00,142.0,WeatherDisplay:10.37,2013-06-13 17:15:00,
2013-06-13 19:20:00,76.9,56.3,29.98,ENE,59,0.3,1.2,49,0.00,CLR,,0.00,130.0,WeatherDisplay:10.37,2013-06-13 17:20:00,
2013-06-13 19:25:00,76.7,55.5,29.98,ENE,63,0.0,0.0,48,0.00,CLR,,0.00,120.0,WeatherDisplay:10.37,2013-06-13 17:25:00,
2013-06-13 19:30:00,76.4,55.8,29.98,ENE,60,0.1,1.0,49,0.00,CLR,,0.00,107.0,WeatherDisplay:10.37,2013-06-13 17:30:00,
2013-06-13 19:35:00,76.2,55.6,29.98,ENE,59,0.9,2.3,49,0.00,CLR,,0.00,93.0,WeatherDisplay:10.37,2013-06-13 17:35:00,
2013-06-13 19:40:00,76.1,56.1,29.98,NE,41,1.0,3.0,50,0.00,CLR,,0.00,83.0,WeatherDisplay:10.37,2013-06-13 17:40:00,
2013-06-13 19:45:00,76.0,56.0,29.98,NE,41,0.0,1.2,50,0.00,CLR,,0.00,70.0,WeatherDisplay:10.37,2013-06-13 17:45:00,
2013-06-13 19:50:00,75.7,56.3,29.98,NE,41,0.0,1.2,51,0.00,CLR,,0.00,58.0,WeatherDisplay:10.37,2013-06-13 17:50:00,
2013-06-13 19:55:00,75.4,56.0,29.99,NE,41,0.0,2.3,51,0.00,CLR,,0.00,51.0,WeatherDisplay:10.37,2013-06-13 17:55:00,
2013-06-13 20:00:00,75.3,56.5,29.98,NE,41,0.1,1.2,52,0.00,CLR,,0.00,40.0,WeatherDisplay:10.37,2013-06-13 18:00:00,
2013-06-13 20:05:00,75.1,56.8,29.98,NE,41,0.1,1.2,53,0.00,CLR,,0.00,33.0,WeatherDisplay:10.37,2013-06-13 18:05:00,
2013-06-13 20:10:00,74.9,58.1,29.99,NE,41,0.1,1.0,56,0.00,CLR,,0.00,23.0,WeatherDisplay:10.37,2013-06-13 18:10:00,
2013-06-13 20:15:00,74.6,57.9,29.99,NE,41,0.1,1.0,56,0.00,CLR,,0.00,14.0,WeatherDisplay:10.37,2013-06-13 18:15:00,
2013-06-13 20:20:00,74.2,57.5,29.99,NE,41,0.0,0.0,56,0.00,CLR,,0.00,12.0,WeatherDisplay:10.37,2013-06-13 18:20:00,
2013-06-13 20:25:00,73.8,58.1,29.98,NE,41,0.0,0.0,58,0.00,CLR,,0.00,11.0,WeatherDisplay:10.37,2013-06-13 18:25:00,
2013-06-13 20:30:00,73.4,57.2,29.98,NE,41,0.0,0.0,57,0.00,CLR,,0.00,9.0,WeatherDisplay:10.37,2013-06-13 18:30:00,
2013-06-13 20:35:00,72.9,57.7,29.98,NE,41,0.0,0.0,59,0.00,CLR,,0.00,7.0,WeatherDisplay:10.37,2013-06-13 18:35:00,
2013-06-13 20:40:00,72.4,57.7,29.99,NE,41,0.0,0.0,60,0.00,CLR,,0.00,5.0,WeatherDisplay:10.37,2013-06-13 18:40:00,
2013-06-13 20:45:00,72.0,58.3,29.99,NE,40,0.0,0.0,62,0.00,CLR,,0.00,0.0,WeatherDisplay:10.37,2013-06-13 18:45:00,
2013-06-13 20:50:00,71.5,58.2,29.99,NE,41,0.0,0.0,63,0.00,CLR,,0.00,0.0,WeatherDisplay:10.37,2013-06-13 18:50:00,
2013-06-13 20:55:00,71.0,58.2,29.99,NE,40,0.0,0.0,64,0.00,CLR,,0.00,0.0,WeatherDisplay:10.37,2013-06-13 18:55:00,
2013-06-13 21:00:00,70.5,58.2,29.99,NE,41,0.0,0.0,65,0.00,CLR,,0.00,0.0,WeatherDisplay:10.37,2013-06-13 19:00:00,
2013-06-13 21:05:00,69.9,58.4,29.99,NE,41,0.0,0.0,67,0.00,CLR,,0.00,0.0,WeatherDisplay:10.37,2013-06-13 19:05:00,
2013-06-13 21:10:00,69.3,57.9,29.99,NE,41,0.0,1.0,67,0.00,CLR,,0.00,0.0,WeatherDisplay:10.37,2013-06-13 19:10:00,
2013-06-13 21:15:00,68.8,57.8,29.99,NE,41,0.0,0.0,68,0.00,CLR,,0.00,0.0,WeatherDisplay:10.37,2013-06-13 19:15:00,
2013-06-13 21:20:00,68.3,58.1,29.99,NE,41,0.0,0.0,70,0.00,CLR,,0.00,0.0,WeatherDisplay:10.37,2013-06-13 19:20:00,
2013-06-13 21:25:00,67.9,57.8,30.00,NE,41,0.0,0.0,70,0.00,CLR,,0.00,0.0,WeatherDisplay:10.37,2013-06-13 19:25:00,
2013-06-13 21:30:00,67.4,58.1,29.99,NE,41,0.0,0.0,72,0.00,CLR,,0.00,0.0,WeatherDisplay:10.37,2013-06-13 19:30:00,
2013-06-13 21:35:00,67.0,58.1,30.00,NE,41,0.0,0.0,73,0.00,CLR,,0.00,0.0,WeatherDisplay:10.37,2013-06-13 19:35:00,
2013-06-13 21:40:00,66.6,58.1,30.00,NE,41,0.0,0.0,74,0.00,CLR,,0.00,0.0,WeatherDisplay:10.37,2013-06-13 19:40:00,
2013-06-13 21:45:00,66.2,57.7,30.00,NE,41,0.0,0.0,74,0.00,CLR,,0.00,0.0,WeatherDisplay:10.37,2013-06-13 19:45:00,
2013-06-13 21:50:00,65.8,57.7,30.00,NE,41,0.0,0.0,75,0.00,CLR,,0.00,0.0,WeatherDisplay:10.37,2013-06-13 19:50:00,
2013-06-13 21:55:00,65.4,57.6,30.00,NE,41,0.0,0.0,76,0.00,CLR,,0.00,0.0,WeatherDisplay:10.37,2013-06-13 19:55:00,
2013-06-13 22:00:00,65.1,57.3,30.00,NE,41,0.0,0.0,76,0.00,CLR,,0.00,0.0,WeatherDisplay:10.37,2013-06-13 20:00:00,
2013-06-13 22:05:00,64.7,57.3,30.00,NE,41,0.0,0.0,77,0.00,CLR,,0.00,0.0,WeatherDisplay:10.37,2013-06-13 20:05:00,
2013-06-13 22:10:00,64.4,57.4,30.00,NE,41,0.0,0.0,78,0.00,CLR,,0.00,0.0,WeatherDisplay:10.37,2013-06-13 20:10:00,
2013-06-13 22:15:00,64.2,57.2,30.00,NE,41,0.0,0.0,78,0.00,CLR,,0.00,0.0,WeatherDisplay:10.37,2013-06-13 20:15:00,
2013-06-13 22:20:00,63.9,57.3,30.00,NE,41,0.0,0.0,79,0.00,CLR,,0.00,0.0,WeatherDisplay:10.37,2013-06-13 20:20:00,
2013-06-13 22:25:00,63.6,57.0,30.00,NE,41,0.0,0.0,79,0.00,CLR,,0.00,0.0,WeatherDisplay:10.37,2013-06-13 20:25:00,
2013-06-13 22:30:00,63.3,57.0,30.00,NE,41,0.0,0.0,80,0.00,CLR,,0.00,0.0,WeatherDisplay:10.37,2013-06-13 20:30:00,
2013-06-13 22:35:00,63.0,56.7,30.00,NE,41,0.0,0.0,80,0.00,CLR,,0.00,0.0,WeatherDisplay:10.37,2013-06-13 20:35:00,
2013-06-13 22:40:00,62.8,56.9,30.00,NE,41,0.0,0.0,81,0.00,CLR,,0.00,0.0,WeatherDisplay:10.37,2013-06-13 20:40:00,
2013-06-13 22:45:00,62.6,57.0,30.00,NE,41,0.0,0.0,82,0.00,CLR,,0.00,0.0,WeatherDisplay:10.37,2013-06-13 20:45:00,
2013-06-13 22:50:00,62.4,56.8,30.00,NE,41,0.0,0.0,82,0.00,CLR,,0.00,0.0,WeatherDisplay:10.37,2013-06-13 20:50:00,
2013-06-13 22:55:00,62.3,57.1,30.00,NE,41,0.0,0.0,83,0.00,CLR,,0.00,0.0,WeatherDisplay:10.37,2013-06-13 20:55:00,
2013-06-13 23:00:00,62.1,56.9,30.00,NE,41,0.0,0.0,83,0.00,CLR,,0.00,0.0,WeatherDisplay:10.37,2013-06-13 21:00:00,
2013-06-13 23:05:00,61.9,57.0,30.00,NE,40,0.0,0.0,84,0.00,CLR,,0.00,0.0,WeatherDisplay:10.37,2013-06-13 21:05:00,
2013-06-13 23:10:00,61.8,56.9,30.00,NE,40,0.0,0.0,84,0.00,CLR,,0.00,0.0,WeatherDisplay:10.37,2013-06-13 21:10:00,
2013-06-13 23:15:00,61.6,56.7,30.00,NE,41,0.0,0.0,84,0.00,CLR,,0.00,0.0,WeatherDisplay:10.37,2013-06-13 21:15:00,
2013-06-13 23:20:00,61.4,56.5,30.00,NE,41,0.0,0.0,84,0.00,CLR,,0.00,0.0,WeatherDisplay:10.37,2013-06-13 21:20:00,
2013-06-13 23:25:00,61.2,56.7,30.00,NE,41,0.0,0.0,85,0.00,CLR,,0.00,0.0,WeatherDisplay:10.37,2013-06-13 21:25:00,
2013-06-13 23:30:00,61.0,56.5,30.00,NE,41,0.0,0.0,85,0.00,CLR,,0.00,0.0,WeatherDisplay:10.37,2013-06-13 21:30:00,
2013-06-13 23:35:00,60.9,56.4,30.00,NE,41,0.0,0.0,85,0.00,CLR,,0.00,0.0,WeatherDisplay:10.37,2013-06-13 21:35:00,
2013-06-13 23:40:00,60.7,56.5,30.00,NE,41,0.0,0.0,86,0.00,CLR,,0.00,0.0,WeatherDisplay:10.37,2013-06-13 21:40:00,
2013-06-13 23:45:00,60.5,56.3,30.00,NE,41,0.0,0.0,86,0.00,CLR,,0.00,0.0,WeatherDisplay:10.37,2013-06-13 21:45:00,
2013-06-13 23:50:00,60.4,56.2,30.00,NE,41,0.0,0.0,86,0.00,CLR,,0.00,0.0,WeatherDisplay:10.37,2013-06-13 21:50:00,
2013-06-13 23:55:00,60.2,56.0,30.00,NE,41,0.0,0.0,86,0.00,CLR,,0.00,0.0,WeatherDisplay:10.37,2013-06-13 21:55:00,